Terug naar catalogus

STARLINK-11542

ActiefCommunicatieVLEO
NORAD 62988·PAYLOAD·🇺🇸 United States

Gelanceerd Feb 11, 2025 vanaf Cape Canaveral Space Force Station

Loading…

Volgende Passages (komende 24 uur)

TLE

VersSource: CelesTrak SupGP

Epoch: Sep 15, 2026, 03:07 UTC

1 62988C 25031H   26258.13034722  .00070372  00000+0  54652-3 0  2580
2 62988  43.0000 299.2991 0001474 256.7702 316.2918 15.70806445    19

Volg STARLINK-11542 in realtime met AllMySat

Download on the App Store